User: anonymous   Login
Location: Ferchesar
(52.6477°N, 12.4298°E)
Time: 08:07:40
(UTC+01:00)
Language:

Explorer 7 - Orbit

View from above orbital plane
View from above orbital plane
View from above satellite
View from above satellite

Ground track
Ground track

The orbit data is extracted from the following two-line orbital elements,

1    22U 59009A   21335.93840718  .00001499  00000-0  13217-3 0  9991
2    22  50.2827 122.4078 0137808 134.2016 227.0350 14.95914584305016
Epoch (UTC): 01 December 2021 22:31:18
Eccentricity: 0.0137808
inclination: 50.2827°
perigee height: 483 km
apogee height: 675 km
right ascension of ascending node: 122.4078°
argument of perigee: 134.2016°
revolutions per day: 14.95914584
mean anomaly at epoch: 227.0350°
orbit number at epoch: 30501

The dashed part of the orbit path shows where the satellite is in the earth's shadow,  

DLR